HORIZONS-3E (43633 NORAD) Tracking and Keplerian Element Data

This shows tracking and keplerian element data for the satellite.

Feedback or suggestion? Click here.




ElementValue
Catalog43633
NameHORIZONS-3E
Epoch Orbit2092
Epoch Day159.50604928
Epoch Year2024
RAAN182.6408
Inclination0.0494
Eccentricity6.28E-05
Argument of Perigee98.751
Mean Anonmoly326.1659
Mean Motion1.00270087
Decay Rate-3.1E-07
L11 43633U 18074B 24159.50604928 -.00000031 00000+0 00000+0 0 9997
L22 43633 0.0494 182.6408 0000628 98.7510 326.1659 1.00270087 20923



Live tracking and technical data element details for HORIZONS-3E (NORAD 43633). HORIZONS-3E can be tracked NOW for your location showing map with azimuth and elevation plus other details from your city location.







IsCatalogInMostPopularTable: catalog: 43633, numindb: 602
Update: records affected: 1



GetName: 43633 HORIZONS-3E

Hit Count: updated at: Mon, 17 Jun 2024 22:53:21 GMT